OpenBCM V2.0.3 (Linux)

Packet Radio Mailbox

IZ3LSV

[San Dona' di P. JN]

 Login: GUEST





  
CX2SA  > KEPS     22.08.26 11:01l 321 Lines 15295 Bytes #149 (0) @ AMSAT
BID : ORB26226.1
Read: GUEST
Subj: 2Line Orbital Elements 26226.AMSAT
Path: IZ3LSV<IK6IHL<IK7NXU<HB9ON<DK0WUE<PI8ZTM<CX2SA
Sent: 260821/0024Z @:CX2SA.SAL.URY.SOAM #:3304 [Salto] FBB7.00e $:ORB26226.1
From: CX2SA@CX2SA.SAL.URY.SOAM
To  : KEPS@AMSAT


QST de W1STR

AMSAT Orbital Elements for Amateur Satellites in TLE Format
>From Orbital Analysis Office
New England Sci-Tech STEM Education Center
Natick MA August 14, 2026
To all radio amateurs


These element sets describe the orbits of various satellites
in use by the amateur radio community. For details see:
www.amsat.org/keplerian-elements-formats/

A daily update of element sets is available at:
www.amsat.org/tle/daily-bulletin.txt
or without bulletin text:
www.amsat.org/tle/dailytle.txt


AO-07
1 07530U 74089B   26225.04079075 -.00000028  00000-0  11278-3 0  9995
2 07530 101.9918 238.8813 0012415  24.5645  46.0266 12.53699076367646
UO-11
1 14781U 84021B   26224.46556728  .00000641  00000-0  70605-4 0  9998
2 14781  97.8109 189.4316 0007769  10.2016 349.9358 14.90914683265513
LO-19
1 20442U 90005G   26225.04313669  .00000026  00000-0  26123-4 0  9991
2 20442  98.8844 248.4120 0012297  43.7480 316.4676 14.34137229910541
AO-27
1 22825U 93061C   26225.12735784  .00000031  00000-0  28825-4 0  9995
2 22825  98.6842 292.5087 0007303 296.7491  63.2944 14.30954934715140
FO-29
1 24278U 96046B   26225.16503428 -.00000028  00000-0  10562-4 0  9993
2 24278  98.5198  66.2267 0348988 308.7057  48.3348 13.53276828480876
GO-32
1 25397U 98043D   26224.96101503  .00000002  00000-0  21237-4 0  9992
2 25397  99.0115 219.1631 0002287  70.3768 289.7657 14.24437855459416
ISS
1 25544U 98067A   26225.14877410  .00003778  00000-0  75606-4 0  9992
2 25544  51.6324  18.1827 0007533  41.6914 318.4648 15.49426097580580
NO-44
1 26931U 01043C   26225.01309130  .00000032  00000-0  42870-4 0  9993
2 26931  67.0501  97.2937 0005675 269.3033  90.7419 14.31974239298583
SO-50
1 27607U 02058C   26224.59410700  .00000423  00000-0  67883-4 0  9994
2 27607  64.5532 314.4492 0073578 252.1254 107.1818 14.83153864272827
CO-55
1 27844U 03031E   26225.00763966  .00000119  00000-0  70538-4 0  9994
2 27844  98.6759 232.8570 0010103  27.5177 332.6535 14.24365847199765
RS-22
1 27939U 03042A   26225.19844420  .00000433  00000-0  74761-4 0  9997
2 27939  98.3477  51.1772 0012557  87.3661  45.6872 14.73556507223949
CO-65
1 32785U 08021C   26225.11683602  .00002069  00000-0  13177-3 0  9999
2 32785  97.8331 207.7555 0008374 183.0549 177.0630 15.09916367993788
CO-66
1 32791U 08021J   26224.96365674  .00009262  00000-0  27930-3 0  9998
2 32791  97.7542 225.6604 0004986 103.4900 256.6898 15.34532591995990
RS-30
1 32953U 08025A   26225.23792063  .00000059  00000-0  35602-3 0  9999
2 32953  82.5080 319.9573 0019695 183.8788 176.2142 12.43182024826788
SRMSAT
1 37841U 11058D   26224.62539733  .00000319  00000-0  29414-4 0  9999
2 37841  19.9722  77.8537 0011778 105.1236 288.2197 14.11585961765808
ZACUBE-1
1 39417U 13066B   26224.45898828  .00002262  00000-0  17640-3 0  9991
2 39417  97.8001 187.0617 0042925  64.1271 296.4370 15.01504644689176
Delfi-N3xt
1 39428U 13066N   26225.18881691  .00003965  00000-0  34237-3 0  9996
2 39428  97.8303 145.4594 0074256  18.5287 341.8611 14.95704193683144
GOMX-1
1 39430U 13066Q   26225.17666611  .00000572  00000-0  93181-4 0  9996
2 39430  97.6453  62.0461 0126732 254.2728 104.4471 14.69599181678280
LO-74
1 39440U 13066AA  26224.32427083  .00001105  00000-0  10592-3 0  9998
2 39440  97.8935 173.5652 0056467 199.6842 160.2199 14.94102927685375
AO-73
1 39444U 13066AE  26224.91964220  .00003597  00000-0  22115-3 0  9997
2 39444  97.8326 197.5931 0036245  13.9685 346.2538 15.10188128688220
DTUSAT-2
1 40030U 14033W   26224.95972086  .00003229  00000-0  17354-3 0  9999
2 40030  98.0894 226.3297 0009075  51.1167 309.0872 15.15666750661284
LILACSAT-2
1 40908U 15049K   26225.12578108  .00010049  00000-0  16114-3 0  9999
2 40908  97.4606 264.1901 0007836  57.3714 302.8294 15.53253407604585
Lapan A3
1 41603U 16040E   26225.23037740  .00001622  00000-0  52457-4 0  9996
2 41603  97.1534 219.5266 0010625 160.3189 199.8466 15.33425310563552
CAS-2T
1 41847U 16066G   26225.16785309  .00000216  00000-0  40384-4 0  9991
2 41847  98.3792 300.2524 0340470 316.8268  40.6680 14.44803936513029
TechnoSat
1 42829U 17042E   26225.02504270  .00001106  00000-0  81445-4 0  9990
2 42829  97.4355  20.5539 0015814 258.5321 101.4130 15.05240690495256
AO-91
1 43017U 17073E   26225.14843726  .00004123  00000-0  17787-3 0  9998
2 43017  97.4621  91.2022 0149832 131.3647 230.0584 15.13434017474000
S-Net D
1 43186U 18014G   26225.19175647  .00002038  00000-0  10615-3 0  9992
2 43186  97.5293 129.6264 0008207 167.9742 192.1688 15.17133753467404
S-Net B
1 43187U 18014H   26225.20435339  .00002219  00000-0  11532-3 0  9992
2 43187  97.5299 129.6272 0009002 164.3764 195.7749 15.17102230467402
S-Net A
1 43188U 18014J   26225.19032414  .00001981  00000-0  10324-3 0  9991
2 43188  97.5311 129.8331 0008839 165.0071 195.1425 15.17141774467403
S-Net C
1 43189U 18014K   26225.01069182  .00002139  00000-0  11132-3 0  9999
2 43189  97.5328 129.7380 0010401 160.1361 200.0279 15.17090905465928
Ten-Koh
1 43677U 18084G   26225.10996472  .00000462  00000-0  39166-4 0  9994
2 43677  98.0739  59.8771 0008416 291.7833  68.2495 15.03131144424719
PO-101
1 43678U 18084H   26225.18374130  .00000522  00000-0  46443-4 0  9997
2 43678  98.1207  63.8979 0010790 347.6778  12.4179 15.00644166424768
QO-100
1 43700U 18090A   26225.14745002  .00000127  00000-0  00000+0 0  9991
2 43700   0.0131  89.5731 0002470  89.6683 221.1825  1.00272111 28249
MinXSS-2
1 43758U 18099A   26225.13850192  .00022657  00000-0  39373-3 0  9990
2 43758  97.4494 303.2449 0007218  66.4747 293.7262 15.50803540422946
AO-95
1 43770U 18099N   26225.14383337  .00005173  00000-0  19302-3 0  9991
2 43770  97.4343 285.2110 0009813 139.2765 220.9209 15.27806508421919
SNUSat 2
1 43782U 18099AA  26225.12790854  .00003571  00000-0  15634-3 0  9992
2 43782  97.4021 277.6540 0011925  96.8043 263.4551 15.22621032421690
SnugLite
1 43784U 18099AC  26225.12634336  .00005028  00000-0  18512-3 0  9993
2 43784  97.3827 278.8773 0004645  93.2741 266.9030 15.28291458422011
ITASat 1
1 43786U 18099AE  26225.12074073  .00002906  00000-0  13905-3 0  9994
2 43786  97.3989 275.5077 0013440 147.3673 212.8395 15.19682995421553
EAGLET 1
1 43790U 18099AJ  26225.12295750  .00001450  00000-0  84916-4 0  9990
2 43790  97.4192 273.2844 0012152 142.3693 217.8391 15.13313017420941
ESEO
1 43792U 18099AL  26225.05235674  .00001281  00000-0  95772-4 0  9997
2 43792  97.3938 260.0005 0012975 135.0385 225.1895 15.04390254420357
JO-97
1 43803U 18099AX  26225.15333069  .00008461  00000-0  24858-3 0  9991
2 43803  97.4092 288.2411 0006913  76.9927 283.2088 15.35353141422365
Suomi 100
1 43804U 18099AY  26225.14115668  .00006057  00000-0  21319-3 0  9992
2 43804  97.4148 285.3581 0011333  82.7454 277.5074 15.29638660422126
ISAT
1 43879U 18111D   26224.58857064  .00118083  00000-0  68163-3 0  9990
2 43879  97.5828 164.6635 0009138 105.4870 254.7406 15.78255449420025
UWE-4
1 43880U 18111E   26224.33035188  .00017288  00000-0  31533-3 0  9996
2 43880  97.5835 155.4491 0009919 112.2334 247.9970 15.49460910419466
Sparrow
1 43881U 18111F   26224.35984473  .01134388  85875-3  98720-3 0  9998
2 43881  97.5966 171.6919 0011674 160.0984 200.0759 16.13273420420287
Prox-1
1 44339U 19036A   26224.93369591  .00005943  00000-0  54688-3 0  9998
2 44339  23.9948  94.8109 0005982 334.7797  25.2411 14.91804474381958
Taurus 1
1 44530U 19059C   26225.19151277  .00001466  00000-0  23898-3 0  9990
2 44530  98.6462  33.5963 0009545 128.8963 231.3095 14.72615854367037
TO-108
1 44881U 19093C   26225.19154211 -.00000255  00000-0 -22662-4 0  9994
2 44881  97.7505 296.0248 0012019 258.9392 101.0472 14.86593302359881
RS-44
1 44909U 19096E   26225.15456900  .00000025  00000-0  55357-4 0  9994
2 44909  82.5231 301.8576 0217592  11.4894 349.1059 12.79748774309630
SALSAT
1 46495U 20068K   26224.97264501  .00003524  00000-0  12216-3 0  9993
2 46495  97.8872 231.5332 0011444 101.8249 258.4274 15.30516899324041
CSS (TIANHE-1)
1 48274U 21035A   26224.98627524  .00000101  00000-0  54127-5 0  9991
2 48274  41.4709 337.2096 0001079 250.4973 109.5748 15.58975796302033
TeikyoSat 4
1 49396U 21102B   26225.05928944  .00000586  00000-0  40091-4 0  9992
2 49396  97.3656 252.3315 0013734  96.6731 263.6062 15.09681864261305
Z-Sat
1 49399U 21102E   26225.19984687  .00001550  00000-0  77762-4 0  9993
2 49399  97.3303 258.7969 0017977  52.1449 308.1409 15.18652811262095
KOSEN 1
1 49402U 21102H   26225.07923571  .00003428  00000-0  12958-3 0  9991
2 49402  97.3152 266.1479 0013551  14.6065 345.5563 15.27565460262709
HO-113
1 50466U 21131B   26225.18563037  .00000213  00000-0  79252-4 0  9994
2 50466  98.4987 317.2671 0002922 294.7769  65.3116 14.41402400243320
SNUGLITE 2
1 52899U 22065F   26224.94848288  .00000373  00000-0  79708-4 0  9993
2 52899  98.2277   9.7050 0007084 195.9435 164.1546 14.64436850219309
UmKA 1 (RS40S)
1 57172U 23091G   26225.19352946  .00002610  00000-0  11944-3 0  9994
2 57172  97.5010 283.6806 0010765 281.4060  78.5966 15.21381656172671
CubeBel-2 (EU11S)
1 57175U 23091K   26225.15515257  .00005689  00000-0  19598-3 0  9991
2 57175  97.5011 288.9204 0007678 270.7423  89.2938 15.30411111173015
RS-38S
1 57189U 23091Z   26225.18301323  .00008414  00000-0  22973-3 0  9996
2 57189  97.5056 295.8682 0006220 212.6470 147.4390 15.37663106173441
SONATE-2
1 59112U 24043Q   26224.93890385  .00024596  00000-0  27231-3 0  9996
2 59112  97.5585  19.0254 0004883 358.4716   1.6526 15.62983909136740
GRBBeta
1 60237U 24128C   26224.95835281  .00001778  00000-0  13141-3 0  9998
2 60237  61.9906  17.0289 0032852 147.1534 213.1610 15.06985335114828
